• In Austria
  • List of Countries
  • For 7 days
  • Water Temperature
  • Satellite Maps
  • Weather Map
  • News
  • Weather Widgets
  • user-avatar
    Login

    Hourly Weather Mons

    Today, 24 February, Saturday

    Time Temperature Precipitation Wind Pressure Humidity
    00:00 -4°C° 0 mm 4 mps 761 mmHg 53%
    01:00 -4°C° 0 mm 4 mps 761 mmHg 52%
    02:00 -4°C° 0 mm 4 mps 761 mmHg 50%
    03:00 -4°C° 0 mm 4 mps 761 mmHg 48%
    04:00 -5°C° 0 mm 5 mps 761 mmHg 46%
    05:00 -5°C° 0 mm 5 mps 761 mmHg 44%
    06:00 -5°C° 0 mm 5 mps 762 mmHg 42%
    07:00 -4°C° 0 mm 6 mps 762 mmHg 38%
    08:00 -3°C° 0 mm 6 mps 762 mmHg 33%
    09:00 -2°C° 0 mm 7 mps 762 mmHg 29%
    10:00 -1°C° 0 mm 7 mps 762 mmHg 29%
    11:00 +2°C° 0 mm 7 mps 762 mmHg 29%
    12:00 +3°C° 0 mm 7 mps 762 mmHg 29%
    13:00 +4°C° 0 mm 7 mps 762 mmHg 32%
    14:00 +4°C° 0 mm 7 mps 762 mmHg 35%
    15:00 +4°C° 0 mm 7 mps 762 mmHg 38%
    16:00 +2°C° 0 mm 7 mps 763 mmHg 43%
    17:00 +1°C° 0 mm 6 mps 763 mmHg 48%
    18:00 -2°C° 0 mm 6 mps 763 mmHg 53%
    19:00 -2°C° 0 mm 6 mps 764 mmHg 53%
    20:00 -3°C° 0 mm 6 mps 764 mmHg 53%
    21:00 -4°C° 0 mm 6 mps 765 mmHg 53%
    22:00 -4°C° 0 mm 5 mps 765 mmHg 52%
    23:00 -5°C° 0 mm 5 mps 765 mmHg 50%

    Tomorrow, 25 February, Sunday

    Time Temperature Precipitation Wind Pressure Humidity
    00:00 -5°C° 0 mm 5 mps 765 mmHg 49%
    01:00 -5°C° 0 mm 5 mps 766 mmHg 48%
    02:00 -6°C° 0 mm 5 mps 766 mmHg 48%
    03:00 -6°C° 0 mm 5 mps 766 mmHg 47%
    04:00 -6°C° 0 mm 5 mps 766 mmHg 47%
    05:00 -6°C° 0 mm 5 mps 766 mmHg 46%
    06:00 -6°C° 0 mm 6 mps 767 mmHg 46%
    07:00 -6°C° 0 mm 6 mps 767 mmHg 42%
    08:00 -6°C° 0 mm 7 mps 767 mmHg 39%
    09:00 -4°C° 0 mm 7 mps 767 mmHg 35%
    10:00 -3°C° 0 mm 7 mps 767 mmHg 31%
    11:00 -2°C° 0 mm 7 mps 767 mmHg 28%
    12:00 -1°C° 0 mm 7 mps 767 mmHg 24%
    13:00 -1°C° 0 mm 7 mps 767 mmHg 24%
    14:00 -1°C° 0 mm 7 mps 767 mmHg 24%
    15:00 -1°C° 0 mm 7 mps 767 mmHg 24%
    16:00 -2°C° 0 mm 6 mps 767 mmHg 28%
    17:00 -4°C° 0 mm 6 mps 767 mmHg 33%
    18:00 -5°C° 0 mm 5 mps 768 mmHg 37%
    19:00 -5°C° 0 mm 5 mps 768 mmHg 39%
    20:00 -6°C° 0 mm 6 mps 768 mmHg 42%
    21:00 -6°C° 0 mm 6 mps 769 mmHg 44%
    22:00 -6°C° 0 mm 5 mps 769 mmHg 47%
    23:00 -6°C° 0 mm 5 mps 769 mmHg 49%

    Day after tomorrow, 26 February, Monday

    Time Temperature Precipitation Wind Pressure Humidity
    00:00 -6°C° 0 mm 5 mps 769 mmHg 52%
    01:00 -6°C° 0 mm 5 mps 769 mmHg 55%
    02:00 -7°C° 0 mm 5 mps 769 mmHg 58%
    03:00 -7°C° 0 mm 5 mps 769 mmHg 61%
    04:00 -7°C° 0 mm 5 mps 769 mmHg 62%
    05:00 -7°C° 0 mm 5 mps 769 mmHg 62%
    06:00 -7°C° 0 mm 5 mps 769 mmHg 63%
    07:00 -6°C° 0 mm 6 mps 769 mmHg 58%
    08:00 -7°C° 0 mm 7 mps 769 mmHg 54%
    09:00 -6°C° 0 mm 7 mps 769 mmHg 49%
    10:00 -6°C° 0 mm 8 mps 769 mmHg 45%
    11:00 -5°C° 0 mm 8 mps 769 mmHg 41%
    12:00 -4°C° 0 mm 8 mps 769 mmHg 36%
    13:00 -4°C° 0 mm 8 mps 768 mmHg 37%
    14:00 -4°C° 0 mm 8 mps 768 mmHg 37%
    15:00 -4°C° 0 mm 8 mps 767 mmHg 38%
    16:00 -4°C° 0 mm 7 mps 767 mmHg 41%
    17:00 -5°C° 0 mm 6 mps 767 mmHg 45%
    18:00 -6°C° 0 mm 5 mps 767 mmHg 48%
    19:00 -6°C° 0 mm 5 mps 767 mmHg 50%
    20:00 -6°C° 0 mm 5 mps 767 mmHg 53%
    21:00 -6°C° 0 mm 5 mps 767 mmHg 55%
    22:00 -6°C° 0 mm 5 mps 767 mmHg 57%
    23:00 -7°C° 0 mm 4 mps 767 mmHg 59%

    27 February, Tuesday

    Time Temperature Precipitation Wind Pressure Humidity
    00:00 -7°C° 0 mm 4 mps 767 mmHg 62%
    01:00 -7°C° 0 mm 4 mps 766 mmHg 64%
    02:00 -7°C° 0 mm 4 mps 766 mmHg 66%
    03:00 -7°C° 0 mm 4 mps 765 mmHg 68%
    04:00 -8°C° 0 mm 4 mps 765 mmHg 67%
    05:00 -8°C° 0 mm 4 mps 765 mmHg 67%
    06:00 -7°C° 0 mm 3 mps 765 mmHg 67%
    07:00 -7°C° 0 mm 4 mps 765 mmHg 62%
    08:00 -5°C° 0 mm 4 mps 764 mmHg 58%
    09:00 -6°C° 0 mm 5 mps 764 mmHg 53%
    10:00 -5°C° 0 mm 5 mps 764 mmHg 48%
    11:00 -4°C° 0 mm 5 mps 764 mmHg 44%
    12:00 -2°C° 0 mm 5 mps 763 mmHg 39%
    13:00 -2°C° 0 mm 5 mps 763 mmHg 39%
    14:00 -2°C° 0 mm 5 mps 762 mmHg 38%
    15:00 -2°C° 0 mm 5 mps 762 mmHg 38%
    16:00 -3°C° 0 mm 4 mps 762 mmHg 43%
    17:00 -4°C° 0 mm 3 mps 762 mmHg 47%
    18:00 -5°C° 0 mm 3 mps 762 mmHg 52%
    19:00 -5°C° 0 mm 3 mps 762 mmHg 54%
    20:00 -5°C° 0 mm 2 mps 762 mmHg 56%
    21:00 -5°C° 0 mm 2 mps 762 mmHg 58%
    22:00 -5°C° 0 mm 2 mps 761 mmHg 59%
    23:00 -5°C° 0 mm 2 mps 761 mmHg 60%

    28 February, Wednesday

    Time Temperature Precipitation Wind Pressure Humidity
    00:00 -6°C° 0 mm 2 mps 761 mmHg 61%
    01:00 -6°C° 0 mm 2 mps 761 mmHg 61%
    02:00 -6°C° 0 mm 2 mps 761 mmHg 60%
    03:00 -6°C° 0 mm 2 mps 761 mmHg 60%
    04:00 -6°C° 0 mm 2 mps 761 mmHg 59%
    05:00 -7°C° 0 mm 2 mps 761 mmHg 57%
    06:00 -7°C° 0 mm 2 mps 761 mmHg 55%
    07:00 -7°C° 0 mm 3 mps 761 mmHg 48%
    08:00 -7°C° 0 mm 4 mps 761 mmHg 40%
    09:00 -6°C° 0 mm 5 mps 761 mmHg 32%
    10:00 -6°C° 0 mm 5 mps 761 mmHg 29%
    11:00 -5°C° 0 mm 6 mps 761 mmHg 26%
    12:00 -5°C° 0 mm 6 mps 760 mmHg 23%
    13:00 -5°C° 0 mm 6 mps 760 mmHg 24%
    14:00 -5°C° 0 mm 6 mps 759 mmHg 25%
    15:00 -5°C° 0 mm 6 mps 759 mmHg 26%
    16:00 -5°C° 0 mm 6 mps 759 mmHg 30%
    17:00 -6°C° 0 mm 6 mps 758 mmHg 33%
    18:00 -7°C° 0 mm 5 mps 758 mmHg 36%
    19:00 -7°C° 0 mm 5 mps 758 mmHg 37%
    20:00 -8°C° 0 mm 6 mps 758 mmHg 37%
    21:00 -8°C° 0 mm 6 mps 758 mmHg 37%
    22:00 -8°C° 0 mm 6 mps 757 mmHg 37%
    23:00 -8°C° 0 mm 7 mps 756 mmHg 38%

    1 March, Thursday

    Time Temperature Precipitation Wind Pressure Humidity
    00:00 -8°C° 0 mm 7 mps 756 mmHg 39%
    01:00 -8°C° 0 mm 7 mps 755 mmHg 39%
    02:00 -8°C° 0 mm 7 mps 754 mmHg 40%
    03:00 -8°C° 0 mm 7 mps 753 mmHg 40%
    04:00 -8°C° 0 mm 8 mps 752 mmHg 41%
    05:00 -8°C° 0 mm 8 mps 752 mmHg 41%
    06:00 -8°C° 0 mm 8 mps 751 mmHg 42%
    07:00 -7°C° 0 mm 8 mps 750 mmHg 42%
    08:00 -7°C° 0 mm 8 mps 750 mmHg 42%
    09:00 -6°C° 0 mm 9 mps 749 mmHg 43%
    10:00 -6°C° 0.1 mm 8 mps 749 mmHg 44%
    11:00 -5°C° 0.1 mm 8 mps 748 mmHg 46%
    12:00 -4°C° 0.1 mm 8 mps 748 mmHg 47%
    13:00 -4°C° 0 mm 8 mps 747 mmHg 49%
    14:00 -2°C° 0 mm 8 mps 746 mmHg 51%
    15:00 -2°C° 0 mm 8 mps 746 mmHg 53%
    16:00 -2°C° 0 mm 8 mps 745 mmHg 53%
    17:00 -2°C° 0 mm 8 mps 745 mmHg 53%
    18:00 -3°C° 0 mm 7 mps 745 mmHg 53%
    19:00 -3°C° 0 mm 7 mps 744 mmHg 53%
    20:00 -4°C° 0 mm 8 mps 744 mmHg 52%
    21:00 -4°C° 0 mm 8 mps 743 mmHg 52%
    22:00 -4°C° 0 mm 8 mps 743 mmHg 51%
    23:00 -4°C° 0 mm 8 mps 742 mmHg 51%
    Show more